www.pogodaiklimat.ru

Погода и климат >> Архив погоды >> Австралия >> Квинсленд >> Беркетаун


ПОГОДА в Беркетауне

  • Прогноз погоды в Беркетауне
  • Монитор погоды в Беркетауне

АРХИВ ПОГОДЫ в Беркетауне

Время (UTC), дата Ветер
(напр.,м/с)
 
Видим.   Явления Облачность Т
(С)
Тd
(С)
f
(%)
Тe
(С)
Тes
(С)
Комфортность P
(гПа)
Po
(гПа)
Тmin
(С)
Tmax
(С)
R
(мм)
R24
(мм)
S
(см)
11 11.08 ЮВ 4 н/о н/о +17.6 -2.1 26 +17 +17 1018.5 1017.8
14 11.08 Ю 5 н/о н/о +14.2 -2.2 32 +13 +13 1018.9 1018.2 +26.0
17 11.08 Ю 4 н/о н/о +12.6 -2.8 34 +11 +11 1018.6 1017.9
20 11.08 Ю 5 н/о н/о +12.2 -3.6 33 +10 +10 1018.9 1018.2
23 11.08 ЮВ 9 н/о н/о +16.4 -3.7 25 +15 +15 1021.5 1020.7
02 12.08 Ю 8 н/о н/о +23.2 -4.0 16 +21 +21 комфорт 1020.0 1019.3 +11.4
05 12.08 Ю 6 н/о н/о +25.5 -6.0 12 +23 +23 комфорт 1017.0 1016.3
08 12.08 Ю 5 н/о н/о +24.2 -7.0 12 +22 +22 комфорт 1017.2 1016.5
11 12.08 Ю 4 н/о н/о +18.0 -4.6 21 +18 +18 1019.3 1018.6
14 12.08 Ю 5 н/о н/о +15.2 -4.2 26 +14 +14 1019.2 1018.5 +26.4
17 12.08 ЮВ 4 н/о н/о +12.0 -3.8 33 +11 +11 1018.0 1017.3
20 12.08 Ю 5 н/о н/о +12.6 -3.2 33 +11 +11 1019.1 1018.4
23 12.08 Ю 8 н/о н/о +17.5 -2.7 25 +17 +17 1021.1 1020.3
02 13.08 ЮВ 8 н/о н/о +24.8 -5.5 13 +23 +23 комфорт 1019.6 1018.9 +12.0
05 13.08 ЮВ 6 н/о н/о +27.1 -7.1 10 +24 +24 комфорт 1016.8 1016.1
08 13.08 Ю 5 н/о н/о +26.4 -6.4 11 +24 +24 комфорт 1017.2 1016.5
11 13.08 Ю 4 н/о н/о +18.8 -4.6 20 +19 +19 1019.0 1018.3
14 13.08 Ю 5 н/о н/о +16.8 -5.0 22 +16 +16 1018.8 1018.1 +28.4
17 13.08 Ю 5 н/о 1/1 1500 м
[]
+17.4 -5.1 21 +17 +17 1018.2 1017.5
20 13.08 Ю 5 н/о 1/0 2000 м
[]
+14.7 -4.1 27 +13 +13 1019.2 1018.5
23 13.08 ЮВ 8 н/о 4/0 2000 м
[]
+19.2 -3.0 22 +18 +19 1020.7 1019.9
02 14.08 В 4 н/о 10/0 2000 м
[]
+26.3 +6.9 29 +26 +31 жарко 1019.6 1018.9 +14.2
05 14.08 СВ 6 н/о н/о +26.6 +13.3 44 +29 +29 жарко 1017.2 1016.5
08 14.08 С 4 н/о 5/0 2000 м
[]
+24.5 +14.3 53 +27 +27 жарко 1017.4 1016.7
11 14.08 СЗ 2 н/о н/о +19.5 +13.7 69 +22 +22 комфорт 1018.6 1017.9
14 14.08 З 2 н/о 4/0 2000 м
[]
+17.2 +10.6 65 +18 +18 1018.2 1017.5 +28.1
17 14.08 Ю 2 н/о 6/0
[]
+17.3 +12.4 73 +18 +18 1017.3 1016.6
20 14.08 Ю 4 н/о 8/0 2000 м
[]
+17.8 +11.1 65 +18 +18 1017.4 1016.7
23 14.08 ЮВ 6 н/о 6/0 2000 м
[]
+22.6 +3.7 29 +23 +24 комфорт 1019.6 1018.9
02 15.08 В 6 н/о н/о +28.1 +11.6 36 +29 +29 жарко 1019.2 1018.5 +16.3
05 15.08 СВ 6 н/о н/о +28.0 +13.5 41 +30 +30 жарко 1016.7 1016.0
08 15.08 С 6 н/о н/о +25.1 +13.9 50 +27 +27 жарко 1016.4 1015.7
11 15.08 СЗ 2 н/о н/о +20.1 +14.7 71 +23 +23 комфорт 1017.6 1016.9
14 15.08 ЮЗ 2 н/о н/о +18.3 +15.0 81 +19 +19 1017.3 1016.6 +29.6
17 15.08 ЮЗ 3 н/о н/о +17.1 +14.7 86 +17 +17 1016.3 1015.6
20 15.08 Ю 3 н/о н/о +16.5 +13.6 83 +16 +16 1016.5 1015.8
23 15.08 ЮВ 6 н/о н/о +23.8 +11.2 45 +25 +25 комфорт 1017.8 1017.1
02 16.08 В 7 н/о н/о +29.6 +13.4 37 +31 +31 жарко 1017.2 1016.5 +16.3
05 16.08 С 6 н/о н/о +30.3 +14.4 38 +32 +32 жарко 1014.8 1014.1
08 16.08 С 5 н/о н/о +27.3 +15.3 48 +30 +30 душно 1014.3 1013.6
11 16.08 С 3 н/о н/о +21.7 +15.1 66 +25 +25 комфорт 1015.5 1014.8
14 16.08 ЮЗ 2 н/о н/о +19.8 +14.2 70 +22 +22 комфорт 1015.4 1014.7 +32.6
17 16.08 ЮЗ 2 н/о 6/0
[]
+19.2 +14.9 76 +21 +21 комфорт 1014.5 1013.8
20 16.08 ЮВ 3 н/о н/о +18.8 +13.6 72 +20 +20 1014.6 1013.9
23 16.08 Ю 2 н/о н/о +25.7 +13.9 48 +28 +28 жарко 1016.1 1015.4
02 17.08 В 6 н/о н/о +30.9 +13.7 35 +32 +32 жарко 1015.7 1015.0 +18.6
05 17.08 СВ 6 н/о н/о +30.2 +13.5 36 +32 +32 жарко 1013.8 1013.1
08 17.08 С 5 н/о н/о +25.9 +19.3 67 +31 +31 очень
душно
1014.2 1013.5
11 17.08 С 2 н/о н/о +22.1 +19.3 84 +28 +28 душно 1015.3 1014.6
14 17.08 СЗ 2 н/о н/о +20.0 +18.1 89 +24 +24 комфорт 1015.3 1014.6 +31.8
17 17.08 З 3 н/о н/о +20.7 +20.4 98 +26 +26 душно 1014.5 1013.8
20 17.08 ЮЗ 2 н/о н/о +19.3 +19.3 100 +22 +22 комфорт 1014.4 1013.7
23 17.08 Ю 2 н/о н/о +24.9 +19.5 72 +30 +30 душно 1015.8 1015.1
02 18.08 СВ 7 н/о н/о +28.7 +19.1 56 +34 +34 очень
душно
1015.9 1015.2 +18.8
05 18.08 СВ 5 н/о н/о +30.5 +17.9 47 +35 +35 очень
душно
1013.4 1012.7
08 18.08 С 5 н/о н/о +26.9 +17.4 56 +31 +31 душно 1013.2 1012.5

 

Местоположение метеостанции Беркетаун (Квинсленд, Австралия): широта -17.75 долгота 139.53 высота над уровнем моря 6 м.

В архиве по умолчанию представлена погода в Беркетауне за последнюю неделю. Архивные данные за месяц целиком и за предыдущие месяцы, начиная с января 2011 года, Вы можете получить, выбрав интересующий диапазон дат из раскрывающегося списка и нажав кнопку "Ввод!".


*Определитесь, кто Вы:
робот инопланетянин человек

Внимание! Время в таблицах - всемирное. Для получения местного времени необходимо прибавить поправку, которая равна 10 ч.

Смотрите также архив погоды в соседних городах и на ближайших метеорологических станциях:

Погода на Острове Морнингтон (Квинсленд, Австралия) (127 км)
Погода на Руднике Century Mine (Квинсленд, Австралия) (142 км)
Погода в Нормантоне (Квинсленд, Австралия) (163 км)
Погода на Озере Джулиус (Квинсленд, Австралия) (264 км)
Погода в Камоауиле (Квинсленд, Австралия) (283 км)
Погода в Нью Мэй Даун (Квинсленд, Австралия) (317 км)
Погода на Маунт-Айза (Квинсленд, Австралия) (326 км)
Погода в Клонкарри (Квинсленд, Австралия) (340 км)
Погода в Кованьяме (Квинсленд, Австралия) (346 км)
Погода на Острове Центр (Северная территория, Австралия) (366 км)

Пояснения к столбцам:

Ветер - указаны скорость ветра в м/с - средняя за 10 мин, порывы в срок и между сроками (в фигурных скобках) и направление, откуда дует ветер: С - северный, СВ - северо-восточный, В - восточный, ЮВ - юго-восточный, Ю - южный, ЮЗ - юго-западный, З - западный, СЗ - северо-западный.
Видимость - горизонтальная дальность видимости в метрах или километрах. При видимости от 1 до 10 км при отсутствии осадков обычно наблюдается дымка, при ухудшении видимости до 1 км и менее - туман. В сухую погоду видимость может ухудшаться дымом, пылью или мглою.
Явления - указаны атмосферные явления, наблюдавшиеся в срок или в последний час перед сроком; фигурными скобками обозначены явления, наблюдавшиеся между сроками (за 1-3 часа до срока); квадратными скобками обозначены град или гололедные отложения с указанием их диаметра в мм.
Облачность - указаны через наклонную черту общая и нижняя облачность в баллах и высота нижней границы облаков в метрах; квадратными скобками обозначены формы облаков: Ci - перистые, Cs - перисто-слоистые, Cc - перисто-кучевые, Ac - высококучевые, As - высокослоистые, Sc - слоисто-кучевые, Ns - слоисто-дождевые, Cu - кучевые, Cb - кучево-дождевые. Подробнее классификацию облаков см. в Атласе облаков (PDF).
T - Температура воздуха - температура, измеренная на высоте 2 м над землей.
Td - Температура точки росы - температура, при понижении до которой содержащийся в воздухе водяной пар достигнет насыщения.
f - Относительная влажность воздуха - влажноcть воздуха, измеренная на высоте 2 м над землей.
Te - Эффективная температура - температура, которую ощущает одетый по сезону человек в тени. Характеристика душности погоды. При расчете учитывается влияние влажности воздуха и скорости ветра на теплоощущения человека.
Tes - Эффективная температура на солнце - температура, которую ощущает человек, с поправкой на солнечный нагрев. Характеристика знойности погоды. Зависит от высоты солнца над горизонтом, облачности и скорости ветра. Ночью, в пасмурную погоду, а также при ветре 12 м/с и более поправка равна нулю.
P - Атмосферное давление - приведенное к уровню моря атмосферное давление.
Po - Атмосферное давление - измеренное на уровне метеостанции атмосферное давление.
Tmin - Минимальная температура - минимум температуры воздуха на высоте 2 м над землей.
Tmax - Максимальная температура - максимум температуры воздуха на высоте 2 м над землей.
R - Количество осадков - Количество выпавших осадков за период времени, мм. При наведении курсора мыши на число - период времени, за который выпало указанное количество осадков.
R24 - Количество осадков - Количество выпавших осадков за 24 часа, мм.
S - Снежный покров - Высота снежного покрова, см. При наведении курсора мыши на число - состояние снежного покрова и степень покрытия местности в баллах.